| time (UTC) | temp C | wind direction | speed KPH | gust KPH | rain 1hr cm | rain 24hr cm | rain mn cm | humidity % | barometer mb |
| 20260905094552 | 25 | 357 | 24.1 | 0.0 | 0.00 | 0.00 | 0.00 | 41 | 1013.3 |
| 20260905093048 | 25 | 282 | 27.4 | 0.0 | 0.00 | 0.00 | 0.00 | 40 | 1013.1 |
| 20260905091613 | 25 | 346 | 29.0 | 0.0 | 0.00 | 0.00 | 0.00 | 41 | 1012.9 |
| 20260905090040 | 25 | 357 | 29.0 | 0.0 | 0.00 | 0.00 | 0.00 | 43 | 1012.6 |
| 20260905084534 | 25 | 282 | 30.6 | 0.0 | 0.00 | 0.00 | 0.00 | 41 | 1012.5 |
| 20260905083030 | 25 | 284 | 29.0 | 0.0 | 0.00 | 0.00 | 0.00 | 40 | 1012.2 |
| 20260905081526 | 25 | 305 | 29.0 | 0.0 | 0.00 | 0.00 | 0.00 | 40 | 1012.3 |
| 20260905080020 | 25 | 193 | 25.7 | 0.0 | 0.00 | 0.00 | 0.00 | 38 | 1012.3 |
| 20260905074518 | 24 | 278 | 22.5 | 0.0 | 0.00 | 0.00 | 0.00 | 37 | 1012.4 |
| 20260905073012 | 24 | 359 | 20.9 | 0.0 | 0.00 | 0.00 | 0.00 | 37 | 1012.0 |
| 20260905071507 | 23 | 359 | 29.0 | 0.0 | 0.00 | 0.00 | 0.00 | 37 | 1011.6 |
| 20260905070004 | 23 | 305 | 29.0 | 0.0 | 0.00 | 0.00 | 0.00 | 35 | 1011.7 |
| 20260905064600 | 23 | 359 | 29.0 | 0.0 | 0.00 | 0.00 | 0.00 | 35 | 1011.9 |
| 20260905063058 | 23 | 359 | 29.0 | 0.0 | 0.00 | 0.00 | 0.00 | 36 | 1011.9 |
| 20260905061618 | 23 | 0 | 27.4 | 0.0 | 0.00 | 0.00 | 0.00 | 37 | 1011.8 |
| 20260905060046 | 22 | 284 | 30.6 | 0.0 | 0.00 | 0.00 | 0.00 | 37 | 1011.9 |
| 20260905054542 | 22 | 359 | 30.6 | 0.0 | 0.00 | 0.00 | 0.00 | 41 | 1011.7 |
| 20260905053038 | 22 | 359 | 30.6 | 0.0 | 0.00 | 0.00 | 0.00 | 43 | 1011.8 |
| 20260905051538 | 22 | 346 | 30.6 | 0.0 | 0.00 | 0.00 | 0.00 | 42 | 1011.4 |
| 20260905050034 | 22 | 0 | 32.2 | 0.0 | 0.00 | 0.00 | 0.00 | 41 | 1011.1 |
| 20260905044532 | 22 | 285 | 32.2 | 0.0 | 0.00 | 0.00 | 0.00 | 40 | 1011.2 |
| 20260905043025 | 22 | 280 | 32.2 | 0.0 | 0.00 | 0.00 | 0.00 | 39 | 1011.2 |
| 20260905041516 | 22 | 359 | 30.6 | 0.0 | 0.00 | 0.00 | 0.00 | 40 | 1010.9 |
| 20260905040011 | 23 | 277 | 33.8 | 0.0 | 0.00 | 0.00 | 0.00 | 41 | 1010.9 |
| 20260905034506 | 22 | 359 | 32.2 | 0.0 | 0.00 | 0.00 | 0.00 | 44 | 1011.0 |
| 20260905033002 | 22 | 285 | 30.6 | 0.0 | 0.00 | 0.00 | 0.00 | 46 | 1011.0 |
| 20260905031559 | 22 | 359 | 27.4 | 0.0 | 0.00 | 0.00 | 0.00 | 46 | 1011.2 |
| 20260905030054 | 22 | 282 | 22.5 | 0.0 | 0.00 | 0.00 | 0.00 | 47 | 1011.2 |
| 20260905024548 | 22 | 282 | 27.4 | 0.0 | 0.00 | 0.00 | 0.00 | 48 | 1011.2 |
| 20260905023044 | 22 | 357 | 29.0 | 0.0 | 0.00 | 0.00 | 0.00 | 48 | 1011.0 |
| 20260905021541 | 22 | 291 | 35.4 | 0.0 | 0.00 | 0.00 | 0.00 | 47 | 1010.7 |
| 20260905020038 | 22 | 359 | 38.6 | 0.0 | 0.00 | 0.00 | 0.00 | 46 | 1010.6 |
| 20260905014535 | 22 | 359 | 40.2 | 0.0 | 0.00 | 0.00 | 0.00 | 46 | 1010.8 |
| 20260905013030 | 22 | 357 | 33.8 | 0.0 | 0.00 | 0.00 | 0.00 | 41 | 1011.0 |
| 20260905011520 | 23 | 280 | 32.2 | 0.0 | 0.00 | 0.00 | 0.00 | 39 | 1010.9 |
| 20260905010019 | 23 | 359 | 29.0 | 0.0 | 0.00 | 0.00 | 0.00 | 38 | 1011.1 |
| 20260905004516 | 23 | 359 | 25.7 | 0.0 | 0.00 | 0.00 | 0.00 | 35 | 1011.3 |
| 20260905003009 | 23 | 359 | 25.7 | 0.0 | 0.00 | 0.00 | 0.00 | 35 | 1011.6 |
| 20260905001506 | 23 | 280 | 24.1 | 0.0 | 0.00 | 0.00 | 0.00 | 37 | 1011.7 |
| 20260905000112 | 23 | 359 | 27.4 | 0.0 | 0.00 | 0.00 | 0.00 | 36 | 1011.8 |
| 20260904234552 | 23 | 285 | 29.0 | 0.0 | 0.00 | 0.00 | 0.00 | 35 | 1011.8 |
| 20260904233102 | 23 | 282 | 29.0 | 0.0 | 0.00 | 0.00 | 0.00 | 33 | 1011.9 |
| 20260904231552 | 23 | 357 | 27.4 | 0.0 | 0.00 | 0.00 | 0.00 | 31 | 1012.0 |
| 20260904230043 | 23 | 282 | 29.0 | 0.0 | 0.00 | 0.00 | 0.00 | 32 | 1011.9 |
| 20260904224545 | 23 | 357 | 27.4 | 0.0 | 0.00 | 0.00 | 0.00 | 34 | 1012.1 |
| 20260904223029 | 23 | 359 | 24.1 | 0.0 | 0.00 | 0.00 | 0.00 | 33 | 1012.4 |
| 20260904221526 | 23 | 282 | 29.0 | 0.0 | 0.00 | 0.00 | 0.00 | 30 | 1012.6 |
| 20260904220020 | 23 | 359 | 24.1 | 0.0 | 0.00 | 0.00 | 0.00 | 30 | 1012.7 |
| 20260904214515 | 23 | 359 | 25.7 | 0.0 | 0.00 | 0.00 | 0.00 | 30 | 1012.5 |
| 20260904213021 | 23 | 192 | 27.4 | 0.0 | 0.00 | 0.00 | 0.00 | 29 | 1012.5 |
| 20260904211506 | 23 | 357 | 27.4 | 0.0 | 0.00 | 0.00 | 0.00 | 30 | 1012.9 |
| 20260904210002 | 23 | 357 | 25.7 | 0.0 | 0.00 | 0.00 | 0.00 | 30 | 1012.9 |
| 20260904204600 | 23 | 0 | 25.7 | 0.0 | 0.00 | 0.00 | 0.00 | 31 | 1013.0 |
| 20260904203101 | 24 | 359 | 25.7 | 0.0 | 0.00 | 0.00 | 0.00 | 30 | 1013.1 |
| 20260904201549 | 24 | 278 | 27.4 | 0.0 | 0.00 | 0.00 | 0.00 | 30 | 1013.1 |
| 20260904200045 | 24 | 359 | 27.4 | 0.0 | 0.00 | 0.00 | 0.00 | 30 | 1013.1 |
| 20260904194539 | 24 | 357 | 27.4 | 0.0 | 0.00 | 0.00 | 0.00 | 29 | 1013.0 |
| 20260904193035 | 25 | 357 | 27.4 | 0.0 | 0.00 | 0.00 | 0.00 | 29 | 1013.1 |
| 20260904191531 | 25 | 359 | 24.1 | 0.0 | 0.00 | 0.00 | 0.00 | 29 | 1013.2 |
| 20260904190033 | 25 | 280 | 25.7 | 0.0 | 0.00 | 0.00 | 0.00 | 28 | 1013.1 |
| 20260904184522 | 25 | 357 | 24.1 | 0.0 | 0.00 | 0.00 | 0.00 | 30 | 1012.7 |
| 20260904183025 | 25 | 359 | 27.4 | 0.0 | 0.00 | 0.00 | 0.00 | 32 | 1012.8 |
| 20260904181527 | 25 | 359 | 20.9 | 0.0 | 0.00 | 0.00 | 0.00 | 40 | 1012.6 |
| 20260904180010 | 26 | 359 | 20.9 | 0.0 | 0.00 | 0.00 | 0.00 | 40 | 1012.4 |
| 20260904174506 | 26 | 359 | 19.3 | 0.0 | 0.00 | 0.00 | 0.00 | 42 | 1012.5 |
| 20260904173003 | 26 | 337 | 19.3 | 0.0 | 0.00 | 0.00 | 0.00 | 41 | 1012.7 |
| 20260904171558 | 27 | 359 | 19.3 | 0.0 | 0.00 | 0.00 | 0.00 | 40 | 1012.7 |
| 20260904170054 | 27 | 282 | 24.1 | 0.0 | 0.00 | 0.00 | 0.00 | 36 | 1012.9 |
| 20260904164548 | 28 | 359 | 22.5 | 0.0 | 0.00 | 0.00 | 0.00 | 33 | 1012.8 |
| 20260904163049 | 28 | 357 | 17.7 | 0.0 | 0.00 | 0.00 | 0.00 | 33 | 1012.9 |
| 20260904161539 | 28 | 359 | 19.3 | 0.0 | 0.00 | 0.00 | 0.00 | 33 | 1013.0 |
| 20260904160035 | 28 | 359 | 17.7 | 0.0 | 0.00 | 0.00 | 0.00 | 30 | 1012.8 |
| 20260904154530 | 29 | 359 | 17.7 | 0.0 | 0.00 | 0.00 | 0.00 | 28 | 1012.9 |
| 20260904153026 | 30 | 0 | 16.1 | 0.0 | 0.00 | 0.00 | 0.00 | 26 | 1013.1 |
| 20260904151525 | 30 | 275 | 16.1 | 0.0 | 0.00 | 0.00 | 0.00 | 24 | 1013.1 |
| 20260904150019 | 30 | 356 | 16.1 | 0.0 | 0.00 | 0.00 | 0.00 | 27 | 1013.2 |
| 20260904144512 | 30 | 357 | 16.1 | 0.0 | 0.00 | 0.00 | 0.00 | 26 | 1013.2 |
| 20260904143007 | 30 | 189 | 12.9 | 0.0 | 0.00 | 0.00 | 0.00 | 29 | 1013.3 |
| 20260904141504 | 30 | 356 | 11.3 | 0.0 | 0.00 | 0.00 | 0.00 | 30 | 1013.3 |
| 20260904140100 | 30 | 275 | 12.9 | 0.0 | 0.00 | 0.00 | 0.00 | 30 | 1013.5 |
| 20260904134557 | 30 | 287 | 12.9 | 0.0 | 0.00 | 0.00 | 0.00 | 26 | 1013.5 |
| 20260904133058 | 30 | 272 | 9.7 | 0.0 | 0.00 | 0.00 | 0.00 | 25 | 1013.6 |
| 20260904131547 | 30 | 282 | 14.5 | 0.0 | 0.00 | 0.00 | 0.00 | 25 | 1013.5 |
| 20260904130040 | 31 | 281 | 11.3 | 0.0 | 0.00 | 0.00 | 0.00 | 22 | 1013.8 |
| 20260904124536 | 30 | 357 | 14.5 | 0.0 | 0.00 | 0.00 | 0.00 | 25 | 1013.9 |
| 20260904123031 | 30 | 189 | 11.3 | 0.0 | 0.00 | 0.00 | 0.00 | 22 | 1013.9 |
| 20260904121527 | 30 | 179 | 11.3 | 0.0 | 0.00 | 0.00 | 0.00 | 23 | 1014.1 |
| 20260904120022 | 30 | 167 | 9.7 | 0.0 | 0.00 | 0.00 | 0.00 | 24 | 1014.2 |
| 20260904114518 | 30 | 184 | 11.3 | 0.0 | 0.00 | 0.00 | 0.00 | 25 | 1014.2 |
| 20260904113013 | 29 | 188 | 11.3 | 0.0 | 0.00 | 0.00 | 0.00 | 28 | 1014.3 |
| 20260904111509 | 30 | 184 | 4.8 | 0.0 | 0.00 | 0.00 | 0.00 | 29 | 1014.5 |
| 20260904110005 | 28 | 143 | 3.2 | 0.0 | 0.00 | 0.00 | 0.00 | 32 | 1014.6 |
| 20260904104607 | 28 | 86 | 1.6 | 0.0 | 0.00 | 0.00 | 0.00 | 34 | 1014.8 |
| 20260904103103 | 27 | 195 | 6.4 | 0.0 | 0.00 | 0.00 | 0.00 | 36 | 1014.8 |
| 20260904101552 | 27 | 175 | 6.4 | 0.0 | 0.00 | 0.00 | 0.00 | 36 | 1014.8 |